Weather in Allaki

Russia / Chelyabinsk Oblast     56°00′06″N   60°58′33″E
temp.,
°C
wind,
m/s
gust,
m/s
humid.,
%
clouds,
%
prec.,
mm/h
press.,
hPa
HPBL,
m
16 april, fri
fri1623:00+11w410780 0.0 1020181
02:00+9w378118 0.0 1019114
05:00+8wnw368177 0.0 102084
08:00+7ne71088100 0.1 1023533
11:00+6ne6779100 0.1 1025678
14:00+5ne5772100 0.0 1027758
17:00+5ese2462100 0.2 1027291
20:00+4w116648 0.0 102712
17 april, sat
sat1723:00+3nne227012 0.0 102720
02:00+1ene22705 0.0 102820
05:00+1e11692 0.0 102711
08:00+3e11615 0.0 1027160
11:00+7se21534 0.0 1026622
14:00+10sw22488 0.0 10241290
17:00+12wnw25355 0.0 10221948
20:00+8nw48534 0.0 1021147
18 april, sun
sun1823:00+5nw410655 0.0 1022262
02:00+3wnw411724 0.0 1020312
05:00+3wnw612751 0.0 1020373
08:00+4nw711735 0.0 1020968
11:00+3nne785791 0.1 10241294
14:00+4nne7837100 0.0 10262254
17:00+4nne7733100 0.0 10292178
20:00+1ne48425 0.0 1031328
19 april, mon
mon1923:00−1ne49485 0.0 1033494
02:00−2ne47460 0.0 1035645
05:00−3ne35450 0.0 1037540
08:00−3ne45343 0.0 1039990
11:00−1ene45280 0.0 10391410
14:00+1ene45260 0.0 10381716
17:00+2ene44280 0.0 10371742
20:00−1e22430 0.0 103830
20 april, tue
tue2023:00−2sse22480 0.0 103923
02:00−3sw23500 0.0 103975
05:00−3wsw234715 0.0 103970
08:000w33355 0.0 1039315
11:00+4w34295 0.0 10371121
14:00+8wnw45265 0.0 10341523
17:00+9wnw56273 0.0 10321557
20:00+5wnw36490 0.0 103291